POISK

导读

POISK卫星是由独联体(CIS)发射的人造卫星,于2009年11月10日08:00成功发射进入太空。作为独联体地区航天领域的一颗任务卫星,它的发射体现了独联体国家延续航天探索传统,承担着特定空间观测或技术试验相关任务,是独联体在航天领域持续开展活动的重要见证,丰富了人类在轨航天器的数量,为相关空间科学研究或应用提供了支持。

Basic Information
目录编号:
36086
目录名称:
POISK
国际标识:
2009-060A
轨道中心:
EARTH
卫星名称:
POISK
卫星全名:
--
卫星状态:
在轨 (已飞行6143 天)
发射日期:
2009-11-10 UTC
国别 :
俄罗斯(独联体) (CIS)
星等 :
--
Orbit Information
数据来源 国际轨道数据
星历时间: 2026-09-05T12:13:20+0800
9小时前
查看轨道信息
半长轴: 6797.808km
偏心率: 0.0005041
轨道倾角: 51.631°
近地点辐角 108.556°
升交点赤经 264.201°
平近点角 251.597°
近地点: 416.244km
远地点: 423.098km
周期: 92.964分钟
每日圈数: 15.489929
Detailed Information
使用方式:
暂无
2D Orbit Map
3D Orbit Map
Orbit Altitude Analysis Chart
Orbit Inclination Analysis Chart
Orbit Comprehensive Analysis Chart
View Comprehensive Chart
Conjunction Data List
Event ID Objects TCA Miss Dist (km) Collision Risk Probability Collision Risk Index (CRI) Action
CDM_260907-203303-608606-779621
POISK (36086)
2026-09-07T
20:33:42+0000
1.344 km
极远距离
9.926984E-7 极低风险 0.35
CDM_260907-220603-608606-779621
POISK (36086)
2026-09-07T
22:06:43+0000
1.387 km
极远距离
9.076325E-7 极低风险 0.34
CDM_260907-233903-608606-779621
POISK (36086)
2026-09-07T
23:39:42+0000
1.430 km
极远距离
8.327397E-7 极低风险 0.33
CDM_260908-011203-608606-779621
POISK (36086)
2026-09-08T
01:12:42+0000
1.474 km
极远距离
7.666416E-7 极低风险 0.33
CDM_260908-024503-608606-779621
POISK (36086)
2026-09-08T
02:45:41+0000
1.519 km
极远距离
7.081648E-7 极低风险 0.32
CDM_260908-041803-608606-779621
POISK (36086)
2026-09-08T
04:18:40+0000
1.564 km
极远距离
6.56309E-7 极低风险 0.31